STARLINK-34880 (65327 NORAD) Tracking and Keplerian Element Data

This shows tracking and keplerian element data for the satellite.

Feedback or suggestion? Click here.




ElementValue
Catalog65327
NameSTARLINK-34880
Epoch Orbit1890
Epoch Day353.99714692
Epoch Year2025
RAAN217.0472
Inclination53.1576
Eccentricity0.0001389
Argument of Perigee85.2596
Mean Anonmoly274.8563
Mean Motion15.30201924
Decay Rate0.00010663
L11 65327U 25189E 25353.99714692 .00010663 00000+0 37160-3 0 9998
L22 65327 53.1576 217.0472 0001389 85.2596 274.8563 15.30201924 18901



Live tracking and technical data element details for STARLINK-34880 (NORAD 65327). STARLINK-34880 can be tracked NOW for your location showing map with azimuth and elevation plus other details from your city location.







IsCatalogInMostPopularTable: catalog: 65327, numindb: 3
Update: records affected: 1



GetName: 65327 STARLINK-34880

Hit Count: updated at: Mon, 09 Feb 2026 08:36:39 GMT